Terminal Aerodrome Forecast
Issued by NWS

Home | Current Version | Previous Version | Text Only | Print | Product List | Glossary On
Versions: 1 2 3 4 5 6 7 8 9 10 11 12 13 14 15 16 17 18 19 20 21 22 23 24 25 26 27 28 29
000
FTUS46 KOTX 301734
TAFCOE
TAF
KCOE 301734Z 3018/0118 20012KT P6SM SCT030 BKN060
     FM302030 21013G20KT P6SM -SHRA BKN045 BKN070
     FM010130 22009KT P6SM SCT050 SCT080
     FM010400 VRB04KT P6SM SKC
     FM011300 18004KT P6SM SCT012
      AMD LTD TO CLD AND VIS=

USA.gov is the U.S. government's official web portal to all federal, state and local government web resources and services.